����,���ϕ���(m/s),���ϕ���,�ő�u�ԕ���(m/s),�ő啗��������,�C��(��),���x(%),10���Ԉړ��ώZ�J��(mm),1���Ԉړ��ώZ�J��(mm),���J��(mm),�݌v�J��(mm)
2020-07-27T00:00:00+09:00,0.4,��쐼,1.7,��,22,97.2,0,0,9.5,9.5
2020-07-27T00:01:00+09:00,0.5,��쐼,1.7,��,21.9,96.8,0,0,0,9.5
2020-07-27T00:02:00+09:00,0.5,��쐼,1.7,��,21.9,96.8,0,0,0,9.5
2020-07-27T00:03:00+09:00,0.5,��쐼,1.7,��,21.9,96.8,0,0,0,9.5
2020-07-27T00:04:00+09:00,0.7,��쐼,1.9,��쐼,21.9,96.9,0,0,0,9.5
2020-07-27T00:05:00+09:00,0.8,��,1.9,��쐼,21.9,97,0,0,0,9.5
2020-07-27T00:06:00+09:00,0.9,��,1.9,��쐼,22,97.1,0,0,0,9.5
2020-07-27T00:07:00+09:00,0.9,��쐼,2,���k��,22,97.2,0,0,0,9.5
2020-07-27T00:08:00+09:00,0.9,��쐼,2.1,���쐼,22.1,97.3,0,0,0,9.5
2020-07-27T00:09:00+09:00,0.9,��쐼,2.1,���쐼,22,97.2,0,0,0,9.5
2020-07-27T00:10:00+09:00,0.9,�쐼,2.1,���쐼,22.1,97,0,0,0,9.5
2020-07-27T00:11:00+09:00,0.8,�쐼,2.1,���쐼,22,97,0,0,0,9.5
2020-07-27T00:12:00+09:00,0.9,���쐼,2.1,���쐼,21.9,96.8,0,0,0,9.5
2020-07-27T00:13:00+09:00,0.9,��,2.1,���쐼,21.8,96.6,0,0,0,9.5
2020-07-27T00:14:00+09:00,0.8,���k��,2.1,���쐼,21.8,96.8,0,0,0,9.5
2020-07-27T00:15:00+09:00,0.8,���k��,2.1,���쐼,21.9,97.1,0,0,0,9.5
2020-07-27T00:16:00+09:00,0.7,���k��,2.1,���쐼,21.9,97.2,0,0,0,9.5
2020-07-27T00:17:00+09:00,0.8,���k��,2.1,���쐼,22,97.3,0,0,0,9.5
2020-07-27T00:18:00+09:00,0.7,���k��,1.9,�쐼,22,97.4,0,0,0,9.5
2020-07-27T00:19:00+09:00,0.8,���k��,1.8,��,21.8,97.1,0,0,0,9.5
2020-07-27T00:20:00+09:00,0.8,���k��,1.8,��,21.9,97.1,0,0,0,9.5
2020-07-27T00:21:00+09:00,0.8,��,1.8,��,21.9,97.3,0,0,0,9.5
2020-07-27T00:22:00+09:00,0.8,���쐼,1.8,��,21.9,97.3,0,0,0,9.5
2020-07-27T00:23:00+09:00,0.8,�쐼,1.8,��,21.9,97.2,0,0,0,9.5
2020-07-27T00:24:00+09:00,0.8,�쐼,1.8,��,21.8,97.1,0,0,0,9.5
2020-07-27T00:25:00+09:00,0.8,��쐼,1.8,��,21.7,97,0,0,0,9.5
2020-07-27T00:26:00+09:00,0.8,��쐼,1.8,��,21.9,97.4,0,0,0,9.5
2020-07-27T00:27:00+09:00,0.7,��쐼,1.7,��쐼,21.9,97.5,0,0,0,9.5
2020-07-27T00:28:00+09:00,0.7,��,1.7,��쐼,21.8,97.2,0,0,0,9.5
2020-07-27T00:29:00+09:00,0.6,��,1.7,��쐼,21.7,97.1,0,0,0,9.5
2020-07-27T00:30:00+09:00,0.6,��,1.7,��쐼,21.8,97.2,0,0,0,9.5
2020-07-27T00:31:00+09:00,0.7,��,1.7,��쐼,21.8,97.4,0,0,0,9.5
2020-07-27T00:32:00+09:00,0.7,��쐼,1.7,��쐼,21.8,97.4,0,0,0,9.5
2020-07-27T00:33:00+09:00,0.8,��쐼,1.7,��쐼,21.7,97.3,0,0,0,9.5
2020-07-27T00:34:00+09:00,0.8,�쐼,1.7,��쐼,21.7,97.2,0,0,0,9.5
2020-07-27T00:35:00+09:00,0.8,���쐼,1.6,��,21.8,97.4,0,0,0,9.5
2020-07-27T00:36:00+09:00,0.8,��,1.6,��,21.7,97.3,0,0,0,9.5
2020-07-27T00:37:00+09:00,0.8,���k��,1.6,��,21.7,97.3,0,0,0,9.5
2020-07-27T00:38:00+09:00,0.8,���k��,1.6,��,21.7,97.4,0,0,0,9.5
2020-07-27T00:39:00+09:00,0.7,���k��,1.6,��,21.7,97.5,0,0,0,9.5
2020-07-27T00:40:00+09:00,0.7,���k��,1.6,��,21.7,97.5,0,0,0,9.5
2020-07-27T00:41:00+09:00,0.7,�k��,1.6,��,21.7,97.5,0,0,0,9.5
2020-07-27T00:42:00+09:00,0.7,�k��,1.6,��,21.7,97.5,0,0,0,9.5
2020-07-27T00:43:00+09:00,0.6,�k��,1.3,�k��,21.8,97.5,0,0,0,9.5
2020-07-27T00:44:00+09:00,0.6,�k��,1.3,�k��,21.8,97.6,0,0,0,9.5
2020-07-27T00:45:00+09:00,0.5,�k��,1.3,�k��,21.7,97.6,0,0,0,9.5
2020-07-27T00:46:00+09:00,0.5,�k�k��,1.2,�k��,21.7,97.5,0,0,0,9.5
2020-07-27T00:47:00+09:00,0.5,�k,1.2,�k��,21.7,97.5,0,0,0,9.5
2020-07-27T00:48:00+09:00,0.4,�k�k��,1.2,�k��,21.7,97.5,0,0,0,9.5
2020-07-27T00:49:00+09:00,0.4,�k��,1.2,�k��,21.7,97.5,0,0,0,9.5
2020-07-27T00:50:00+09:00,0.4,�k��,1.2,�k��,21.7,97.5,0,0,0,9.5
2020-07-27T00:51:00+09:00,0.4,�k��,1.2,�k��,21.8,97.6,0,0,0,9.5
2020-07-27T00:52:00+09:00,0.4,�k��,1.2,�k��,21.7,97.6,0,0,0,9.5
2020-07-27T00:53:00+09:00,0.5,�k��,1.6,�k��,21.7,97.6,0,0,0,9.5
2020-07-27T00:54:00+09:00,0.6,�k��,1.7,�k��,21.7,97.6,0,0,0,9.5
2020-07-27T00:55:00+09:00,0.6,�k,1.7,�k��,21.7,97.6,0,0,0,9.5
2020-07-27T00:56:00+09:00,0.6,�k�k��,1.7,�k��,21.7,97.6,0,0,0,9.5
2020-07-27T00:57:00+09:00,0.6,�k��,1.7,�k��,21.7,97.6,0,0,0,9.5
2020-07-27T00:58:00+09:00,0.6,�k��,1.7,�k��,21.7,97.6,0,0,0,9.5
2020-07-27T00:59:00+09:00,0.7,�k��,1.7,�k��,21.7,97.6,0,0,0,9.5
2020-07-27T01:00:00+09:00,0.8,�k�k��,1.7,�k��,21.7,97.6,0,0,0,9.5
2020-07-27T01:01:00+09:00,0.8,�k,1.7,�k��,21.7,97.6,0,0,0,9.5
2020-07-27T01:02:00+09:00,0.8,�k�k��,1.7,�k��,21.6,97.6,0,0,0,9.5
2020-07-27T01:03:00+09:00,0.7,�k��,1.7,�k��,21.6,97.6,0,0,0,9.5
2020-07-27T01:04:00+09:00,0.6,�k��,1.4,�k��,21.6,97.6,0,0,0,9.5
2020-07-27T01:05:00+09:00,0.6,���k��,1.4,�k��,21.6,97.6,0,0,0,9.5
2020-07-27T01:06:00+09:00,0.6,���k��,1.4,�k��,21.6,97.6,0,0,0,9.5
2020-07-27T01:07:00+09:00,0.6,�k��,1.4,�k��,21.6,97.6,0,0,0,9.5
2020-07-27T01:08:00+09:00,0.6,�k��,1.4,�k��,21.6,97.6,0,0,0,9.5
2020-07-27T01:09:00+09:00,0.6,�k��,1.3,���k��,21.7,97.7,0,0,0,9.5
2020-07-27T01:10:00+09:00,0.5,�k�k��,1.3,���k��,21.6,97.6,0,0,0,9.5
2020-07-27T01:11:00+09:00,0.5,�k�k��,1.3,���k��,21.5,97.6,0,0,0,9.5
2020-07-27T01:12:00+09:00,0.5,�k�k��,1.1,�k,21.5,97.6,0,0,0,9.5
2020-07-27T01:13:00+09:00,0.4,�k�k��,1.1,�k,21.5,97.6,0,0,0,9.5
2020-07-27T01:14:00+09:00,0.4,�k�k��,1.1,�k,21.5,97.6,0,0,0,9.5
2020-07-27T01:15:00+09:00,0.4,�k,1.1,�k,21.5,97.7,0,0,0,9.5
2020-07-27T01:16:00+09:00,0.4,�k,0.8,�k�k��,21.5,97.7,0,0,0,9.5
2020-07-27T01:17:00+09:00,0.4,�k,0.8,�k�k��,21.5,97.7,0,0,0,9.5
2020-07-27T01:18:00+09:00,0.3,�k�k��,0.8,�k�k��,21.5,97.7,0,0,0,9.5
2020-07-27T01:19:00+09:00,0.3,�k�k��,0.8,�k�k��,21.5,97.7,0,0,0,9.5
2020-07-27T01:20:00+09:00,0.3,�k��,0.8,�k�k��,21.5,97.7,0,0,0,9.5
2020-07-27T01:21:00+09:00,0.3,���k��,0.8,�k�k��,21.5,97.7,0,0,0,9.5
2020-07-27T01:22:00+09:00,0.2,�É�,0.8,�k�k��,21.5,97.7,0,0,0,9.5
2020-07-27T01:23:00+09:00,0.2,�É�,0.8,�k�k��,21.5,97.7,0,0,0,9.5
2020-07-27T01:24:00+09:00,0.3,���쐼,0.8,�k�k��,21.6,97.8,0,0,0,9.5
2020-07-27T01:25:00+09:00,0.3,���쐼,0.9,��쐼,21.5,97.8,0,0,0,9.5
2020-07-27T01:26:00+09:00,0.3,�쐼,0.9,��쐼,21.5,97.8,0,0,0,9.5
2020-07-27T01:27:00+09:00,0.4,�쐼,1.1,��,21.6,97.7,0,0,0,9.5
2020-07-27T01:28:00+09:00,0.4,�쐼,1.1,��,21.6,97.8,0,0,0,9.5
2020-07-27T01:29:00+09:00,0.5,��쐼,1.1,��,21.6,97.8,0,0,0,9.5
2020-07-27T01:30:00+09:00,0.5,��쐼,1.1,��,21.6,97.8,0,0,0,9.5
2020-07-27T01:31:00+09:00,0.6,��쐼,1.3,�쓌,21.6,97.7,0,0,0,9.5
2020-07-27T01:32:00+09:00,0.7,��,1.3,�쓌,21.6,97.7,0,0,0,9.5
2020-07-27T01:33:00+09:00,0.7,��,1.3,�쓌,21.6,97.8,0,0,0,9.5
2020-07-27T01:34:00+09:00,0.8,��쐼,2.6,���쐼,21.7,97.8,0,0,0,9.5
2020-07-27T01:35:00+09:00,0.9,��쐼,2.7,���쐼,21.7,97.8,0,0,0,9.5
2020-07-27T01:36:00+09:00,1,��쐼,2.7,���쐼,21.8,97.9,0,0,0,9.5
2020-07-27T01:37:00+09:00,1.1,��쐼,4.2,���쐼,21.9,97.8,0,0,0,9.5
2020-07-27T01:38:00+09:00,1.2,�쐼,4.2,���쐼,21.9,97.8,0,0,0,9.5
2020-07-27T01:39:00+09:00,1.4,�쐼,4.2,���쐼,21.9,97.8,0,0,0,9.5
2020-07-27T01:40:00+09:00,1.6,���쐼,4.2,���쐼,21.9,97.8,0,0,0,9.5
2020-07-27T01:41:00+09:00,1.7,���쐼,4.2,���쐼,21.9,97.8,0,0,0,9.5
2020-07-27T01:42:00+09:00,2,���쐼,4.2,���쐼,21.9,97.7,0,0,0,9.5
2020-07-27T01:43:00+09:00,2.3,���쐼,4.2,���쐼,21.9,97.7,0,0,0,9.5
2020-07-27T01:44:00+09:00,2.4,���쐼,4.4,��,21.9,97.6,0,0,0,9.5
2020-07-27T01:45:00+09:00,2.6,���쐼,4.4,��,21.9,97.6,0,0,0,9.5
2020-07-27T01:46:00+09:00,2.8,���쐼,4.4,��,21.9,97.6,0,0,0,9.5
2020-07-27T01:47:00+09:00,2.9,���쐼,4.4,��,21.9,97.5,0,0,0,9.5
2020-07-27T01:48:00+09:00,3,���쐼,4.4,��,22,97.6,0,0,0,9.5
2020-07-27T01:49:00+09:00,3.1,���쐼,4.4,��,22,97.5,0,0,0,9.5
2020-07-27T01:50:00+09:00,3.1,���쐼,4.4,��,22,97.5,0,0,0,9.5
2020-07-27T01:51:00+09:00,3.1,���쐼,4.4,��,22,97.5,0,0,0,9.5
2020-07-27T01:52:00+09:00,3,���쐼,4.4,��,22.1,97.3,0,0,0,9.5
2020-07-27T01:53:00+09:00,3,���쐼,4.4,��,22,97.2,0,0,0,9.5
2020-07-27T01:54:00+09:00,2.9,���쐼,4.1,��,22,97.1,0,0,0,9.5
2020-07-27T01:55:00+09:00,2.8,���쐼,4,���쐼,22,97.1,0,0,0,9.5
2020-07-27T01:56:00+09:00,2.7,���쐼,3.7,���쐼,22.1,97.1,0,0,0,9.5
2020-07-27T01:57:00+09:00,2.7,��,3.7,���쐼,22,96.9,0,0,0,9.5
2020-07-27T01:58:00+09:00,2.7,��,3.7,���쐼,22,96.9,0,0,0,9.5
2020-07-27T01:59:00+09:00,2.6,��,3.6,���쐼,22,96.8,0,0,0,9.5
2020-07-27T02:00:00+09:00,2.6,��,3.4,��,22,96.8,0,0,0,9.5
2020-07-27T02:01:00+09:00,2.6,��,3.4,��,21.9,96.8,0,0,0,9.5
2020-07-27T02:02:00+09:00,2.6,��,3.4,��,21.9,96.8,0,0,0,9.5
2020-07-27T02:03:00+09:00,2.5,��,3.4,��,21.9,96.9,0,0,0,9.5
2020-07-27T02:04:00+09:00,2.6,��,3.7,���쐼,21.9,97,0,0,0,9.5
2020-07-27T02:05:00+09:00,2.6,��,3.7,���쐼,22,97.1,0,0,0,9.5
2020-07-27T02:06:00+09:00,2.6,��,3.7,���쐼,22,97.1,0,0,0,9.5
2020-07-27T02:07:00+09:00,2.5,��,3.7,���쐼,22.1,97.1,0,0,0,9.5
2020-07-27T02:08:00+09:00,2.4,��,3.7,���쐼,22.1,97.1,0,0,0,9.5
2020-07-27T02:09:00+09:00,2.3,��,3.7,���쐼,22.1,97,0,0,0,9.5
2020-07-27T02:10:00+09:00,2.2,���쐼,3.7,���쐼,22.1,97,0,0,0,9.5
2020-07-27T02:11:00+09:00,2.1,���쐼,3.7,���쐼,22.2,96.9,0,0,0,9.5
2020-07-27T02:12:00+09:00,2.1,���쐼,3.7,���쐼,22.2,96.9,0,0,0,9.5
2020-07-27T02:13:00+09:00,2,���쐼,3.7,���쐼,22.2,96.8,0,0,0,9.5
2020-07-27T02:14:00+09:00,1.7,���쐼,3,���쐼,22.2,96.7,0,0,0,9.5
2020-07-27T02:15:00+09:00,1.5,���쐼,2.7,�쐼,22.3,96.8,0,0,0,9.5
2020-07-27T02:16:00+09:00,1.4,���쐼,2.7,�쐼,22.3,96.8,0,0,0,9.5
2020-07-27T02:17:00+09:00,1.3,���쐼,2.4,���쐼,22.2,96.5,0,0,0,9.5
2020-07-27T02:18:00+09:00,1.3,���쐼,2.4,���쐼,22.2,96.4,0,0,0,9.5
2020-07-27T02:19:00+09:00,1.3,���쐼,3.6,��,22.2,96.4,0,0,0,9.5
2020-07-27T02:20:00+09:00,1.4,���쐼,3.6,��,22.2,96.3,0,0,0,9.5
2020-07-27T02:21:00+09:00,1.4,���쐼,3.6,��,22.3,96.3,0,0,0,9.5
2020-07-27T02:22:00+09:00,1.5,���쐼,3.7,���쐼,22.3,96.2,0,0,0,9.5
2020-07-27T02:23:00+09:00,1.6,���쐼,3.7,���쐼,22.4,96.1,0,0,0,9.5
2020-07-27T02:24:00+09:00,1.8,���쐼,3.7,���쐼,22.4,95.8,0,0,0,9.5
2020-07-27T02:25:00+09:00,2,���쐼,3.8,���쐼,22.4,95.6,0,0,0,9.5
2020-07-27T02:26:00+09:00,2.2,���쐼,3.8,���쐼,22.4,95.5,0,0,0,9.5
2020-07-27T02:27:00+09:00,2.3,���쐼,3.8,���쐼,22.4,95.3,0,0,0,9.5
2020-07-27T02:28:00+09:00,2.4,���쐼,3.8,���쐼,22.4,95.3,0,0,0,9.5
2020-07-27T02:29:00+09:00,2.6,���쐼,4.2,��,22.4,95.3,0,0,0,9.5
2020-07-27T02:30:00+09:00,2.7,���쐼,4.7,��,22.4,95.1,0,0,0,9.5
2020-07-27T02:31:00+09:00,2.9,���쐼,4.8,��,22.4,95,0,0,0,9.5
2020-07-27T02:32:00+09:00,2.9,���쐼,4.8,��,22.4,95.1,0,0,0,9.5
2020-07-27T02:33:00+09:00,2.9,���쐼,4.8,��,22.4,95.2,0,0,0,9.5
2020-07-27T02:34:00+09:00,2.9,���쐼,4.8,��,22.4,95.2,0,0,0,9.5
2020-07-27T02:35:00+09:00,3.1,���쐼,5.3,���쐼,22.4,95,0,0,0,9.5
2020-07-27T02:36:00+09:00,3.2,���쐼,5.3,���쐼,22.4,95,0,0,0,9.5
2020-07-27T02:37:00+09:00,3.3,���쐼,5.3,���쐼,22.4,95,0,0,0,9.5
2020-07-27T02:38:00+09:00,3.5,��,5.3,���쐼,22.4,94.7,0,0,0,9.5
2020-07-27T02:39:00+09:00,3.7,���쐼,5.8,���쐼,22.4,94.8,0,0,0,9.5
2020-07-27T02:40:00+09:00,3.8,��,5.8,���쐼,22.5,94.6,0,0,0,9.5
2020-07-27T02:41:00+09:00,3.8,��,5.8,���쐼,22.5,94.5,0,0,0,9.5
2020-07-27T02:42:00+09:00,3.8,��,5.8,���쐼,22.5,94.4,0,0,0,9.5
2020-07-27T02:43:00+09:00,3.9,��,5.8,���쐼,22.5,94.5,0,0,0,9.5
2020-07-27T02:44:00+09:00,3.9,��,5.8,���쐼,22.6,94.6,0,0,0,9.5
2020-07-27T02:45:00+09:00,3.8,��,5.8,���쐼,22.6,94.5,0,0,0,9.5
2020-07-27T02:46:00+09:00,3.7,��,5.8,���쐼,22.6,94.2,0,0,0,9.5
2020-07-27T02:47:00+09:00,3.6,��,5.8,���쐼,22.6,94,0,0,0,9.5
2020-07-27T02:48:00+09:00,3.6,��,5.8,���쐼,22.6,93.7,0,0,0,9.5
2020-07-27T02:49:00+09:00,3.4,��,5.6,��,22.7,93.6,0,0,0,9.5
2020-07-27T02:50:00+09:00,3.3,��,5.4,��,22.7,93.4,0,0,0,9.5
2020-07-27T02:51:00+09:00,3.3,���쐼,5,���쐼,22.7,93.2,0,0,0,9.5
2020-07-27T02:52:00+09:00,3.3,��,5,���쐼,22.7,93,0,0,0,9.5
2020-07-27T02:53:00+09:00,3.4,���쐼,5,���쐼,22.7,93.2,0,0,0,9.5
2020-07-27T02:54:00+09:00,3.4,��,5,���쐼,22.7,92.9,0,0,0,9.5
2020-07-27T02:55:00+09:00,3.5,���쐼,5,���쐼,22.7,92.9,0,0,0,9.5
2020-07-27T02:56:00+09:00,3.5,��,5,���쐼,22.7,93,0,0,0,9.5
2020-07-27T02:57:00+09:00,3.4,��,5,���쐼,22.6,93,0,0,0,9.5
2020-07-27T02:58:00+09:00,3.4,��,5,���쐼,22.6,93.2,0,0,0,9.5
2020-07-27T02:59:00+09:00,3.4,��,5,���쐼,22.7,93.5,0,0,0,9.5
2020-07-27T03:00:00+09:00,3.4,��,4.9,��,22.6,93.5,0,0,0,9.5
2020-07-27T03:01:00+09:00,3.3,��,4.8,��,22.7,93.6,0,0,0,9.5
2020-07-27T03:02:00+09:00,3.3,��,4.8,��,22.7,93.8,0,0,0,9.5
2020-07-27T03:03:00+09:00,3.2,��,4.8,��,22.9,93.9,0,0,0,9.5
2020-07-27T03:04:00+09:00,3.1,��,4.4,���쐼,22.8,93.2,0,0,0,9.5
2020-07-27T03:05:00+09:00,3.1,��,4.4,���쐼,22.7,93,0,0,0,9.5
2020-07-27T03:06:00+09:00,3.1,��,4.4,���쐼,22.7,93.3,0,0,0,9.5
2020-07-27T03:07:00+09:00,3.2,��,5.1,��,22.7,93.2,0,0,0,9.5
2020-07-27T03:08:00+09:00,3.3,��,5.1,��,22.6,93.3,0,0,0,9.5
2020-07-27T03:09:00+09:00,3.4,��,5.1,��,22.6,93.6,0,0,0,9.5
2020-07-27T03:10:00+09:00,3.4,��,5.1,��,22.5,93.7,0,0,0,9.5
2020-07-27T03:11:00+09:00,3.6,��,5.8,���쐼,22.5,93.9,0,0,0,9.5
2020-07-27T03:12:00+09:00,3.7,��,5.8,���쐼,22.4,94.2,0,0,0,9.5
2020-07-27T03:13:00+09:00,3.9,��,5.8,���쐼,22.4,94.5,0,0,0,9.5
2020-07-27T03:14:00+09:00,4,��,5.8,���쐼,22.4,94.6,0,0,0,9.5
2020-07-27T03:15:00+09:00,4.1,��,5.8,���쐼,22.5,95,0,0,0,9.5
2020-07-27T03:16:00+09:00,4,��,5.8,���쐼,22.5,95.3,0,0,0,9.5
2020-07-27T03:17:00+09:00,3.9,��,5.8,���쐼,22.5,95.2,0,0,0,9.5
2020-07-27T03:18:00+09:00,3.7,��,5.8,���쐼,22.6,95.3,0,0,0,9.5
2020-07-27T03:19:00+09:00,3.6,��,5.8,���쐼,22.6,95.2,0,0,0,9.5
2020-07-27T03:20:00+09:00,3.5,��,5.8,���쐼,22.6,94.9,0,0,0,9.5
2020-07-27T03:21:00+09:00,3.2,��,5,��,22.7,94.7,0,0,0,9.5
2020-07-27T03:22:00+09:00,3,���쐼,5,��,22.7,94.6,0,0,0,9.5
2020-07-27T03:23:00+09:00,2.6,���쐼,4.8,��,22.7,94.4,0,0,0,9.5
2020-07-27T03:24:00+09:00,2.3,���쐼,4.7,��,22.6,94.3,0,0,0,9.5
2020-07-27T03:25:00+09:00,2,���쐼,4,���쐼,22.5,94.7,0,0,0,9.5
2020-07-27T03:26:00+09:00,1.8,���쐼,4,���쐼,22.6,95.1,0,0,0,9.5
2020-07-27T03:27:00+09:00,1.6,���쐼,3.5,���쐼,22.8,95.4,0,0,0,9.5
2020-07-27T03:28:00+09:00,1.6,���쐼,4,��,22.7,94.8,0,0,0,9.5
2020-07-27T03:29:00+09:00,1.5,���쐼,4,��,22.7,94.2,0,0,0,9.5
2020-07-27T03:30:00+09:00,1.3,���쐼,4,��,22.7,94.1,0,0,0,9.5
2020-07-27T03:31:00+09:00,1.2,�쐼,4,��,22.6,94.4,0,0,0,9.5
2020-07-27T03:32:00+09:00,1.1,�쐼,4,��,22.5,94.9,0,0,0,9.5
2020-07-27T03:33:00+09:00,1.1,�쐼,4,��,22.5,95.2,0,0,0,9.5
2020-07-27T03:34:00+09:00,1,��쐼,4,��,22.6,95.5,0,0,0,9.5
2020-07-27T03:35:00+09:00,1,��,4,��,22.6,95.5,0,0,0,9.5
2020-07-27T03:36:00+09:00,1,��쓌,4,��,22.5,95.2,0,0,0,9.5
2020-07-27T03:37:00+09:00,1,�쓌,4,��,22.5,95.1,0,0,0,9.5
2020-07-27T03:38:00+09:00,0.8,�쓌,3.2,��,22.5,95.2,0,0,0,9.5
2020-07-27T03:39:00+09:00,0.6,���쓌,1.8,�쓌,22.5,95.3,0,0,0,9.5
2020-07-27T03:40:00+09:00,0.8,���쓌,4.6,��,22.5,95.4,0,0,0,9.5
2020-07-27T03:41:00+09:00,1,���쓌,4.6,��,22.5,95.4,0,0,0,9.5
2020-07-27T03:42:00+09:00,1.2,���쓌,4.6,��,22.6,95.4,0,0,0,9.5
2020-07-27T03:43:00+09:00,1.5,��쓌,6.4,���쐼,22.6,95.3,0,0,0,9.5
2020-07-27T03:44:00+09:00,2,�쐼,6.4,���쐼,22.5,95,0,0,0,9.5
2020-07-27T03:45:00+09:00,2.5,���쐼,6.6,��,22.4,95,0,0,0,9.5
2020-07-27T03:46:00+09:00,3,���쐼,6.6,��,22.4,95.2,0,0,0,9.5
2020-07-27T03:47:00+09:00,3.4,��,6.6,��,22.4,95.4,0,0,0,9.5
2020-07-27T03:48:00+09:00,3.6,��,6.6,��,22.5,95.5,0,0,0,9.5
2020-07-27T03:49:00+09:00,3.9,��,6.6,��,22.5,95.5,0,0,0,9.5
2020-07-27T03:50:00+09:00,3.9,��,6.6,��,22.5,95.6,0,0,0,9.5
2020-07-27T03:51:00+09:00,4,��,6.6,��,22.6,95.5,0,0,0,9.5
2020-07-27T03:52:00+09:00,4.1,���쐼,6.6,��,22.7,95.2,0,0,0,9.5
2020-07-27T03:53:00+09:00,4,���쐼,6.6,��,22.7,95,0,0,0,9.5
2020-07-27T03:54:00+09:00,3.8,���쐼,6.6,��,22.8,94.9,0,0,0,9.5
2020-07-27T03:55:00+09:00,3.6,���쐼,6,���쐼,22.9,94.9,0,0,0,9.5
2020-07-27T03:56:00+09:00,3.4,���쐼,6,���쐼,22.9,94.4,0,0,0,9.5
2020-07-27T03:57:00+09:00,3.3,���쐼,5.1,��,22.9,94.4,0,0,0,9.5
2020-07-27T03:58:00+09:00,3.4,���쐼,5.1,��,22.9,94.1,0,0,0,9.5
2020-07-27T03:59:00+09:00,3.4,���쐼,5.1,��,23,94,0,0,0,9.5
2020-07-27T04:00:00+09:00,3.4,���쐼,5.2,��,23,93.9,0,0,0,9.5
2020-07-27T04:01:00+09:00,3.5,��,6.4,��,23.1,93.9,0,0,0,9.5
2020-07-27T04:02:00+09:00,3.6,��,6.4,��,23.2,93.8,0,0,0,9.5
2020-07-27T04:03:00+09:00,3.6,��,6.4,��,23,92.8,0,0,0,9.5
2020-07-27T04:04:00+09:00,3.7,��,6.4,��,22.9,93.2,0,0,0,9.5
2020-07-27T04:05:00+09:00,3.7,��,6.4,��,22.9,93.7,0,0,0,9.5
2020-07-27T04:06:00+09:00,3.8,��,6.4,��,23,94,0,0,0,9.5
2020-07-27T04:07:00+09:00,3.8,��,6.4,��,23.1,94.3,0,0,0,9.5
2020-07-27T04:08:00+09:00,3.9,��,6.4,��,23.1,94.1,0,0,0,9.5
2020-07-27T04:09:00+09:00,4,��,6.4,��,23,93.1,0,0,0,9.5
2020-07-27T04:10:00+09:00,4,��,6.4,��,22.8,92.2,0,0,0,9.5
2020-07-27T04:11:00+09:00,3.9,��,5.7,��,22.7,92.9,0,0,0,9.5
2020-07-27T04:12:00+09:00,4,��,5.7,��,22.7,93.8,0,0,0,9.5
2020-07-27T04:13:00+09:00,4,��,5.7,��,22.7,94.2,0,0,0,9.5
2020-07-27T04:14:00+09:00,4.1,��,5.7,��,22.9,95.1,0,0,0,9.5
2020-07-27T04:15:00+09:00,4.1,��,5.7,��,23,94.6,0,0,0,9.5
2020-07-27T04:16:00+09:00,4,��,5.7,��,23,94.6,0,0,0,9.5
2020-07-27T04:17:00+09:00,4,��,5.7,��,23,93.9,0,0,0,9.5
2020-07-27T04:18:00+09:00,4,��,6.1,��,23.2,94,0,0,0,9.5
2020-07-27T04:19:00+09:00,4,��,6.4,�쐼,23.2,92.8,0,0,0,9.5
2020-07-27T04:20:00+09:00,4.1,��,6.4,�쐼,23.2,92.5,0,0,0,9.5
2020-07-27T04:21:00+09:00,4.1,��,6.4,�쐼,23.1,91.6,0,0,0,9.5
2020-07-27T04:22:00+09:00,4.1,��,6.4,�쐼,23.2,92.1,0,0,0,9.5
2020-07-27T04:23:00+09:00,4.1,��,6.4,�쐼,23.3,92,0,0,0,9.5
2020-07-27T04:24:00+09:00,4.1,��,6.4,�쐼,23.4,91.6,0,0,0,9.5
2020-07-27T04:25:00+09:00,4.2,��,6.4,�쐼,23.3,90.6,0,0,0,9.5
2020-07-27T04:26:00+09:00,4.2,��,6.4,�쐼,23.4,91.1,0,0,0,9.5
2020-07-27T04:27:00+09:00,4.2,��,6.4,�쐼,23.2,90.4,0,0,0,9.5
2020-07-27T04:28:00+09:00,4.3,��,6.9,��,23.2,90.6,0,0,0,9.5
2020-07-27T04:29:00+09:00,4.4,��,7.1,���k��,23.3,91.4,0,0,0,9.5
2020-07-27T04:30:00+09:00,4.4,��,7.1,���k��,23.2,90.3,0,0,0,9.5
2020-07-27T04:31:00+09:00,4.5,��,7.1,���k��,23.2,90.9,0,0,0,9.5
2020-07-27T04:32:00+09:00,4.6,��,7.1,���k��,23.2,91.2,0,0,0,9.5
2020-07-27T04:33:00+09:00,4.6,��,8,��,23.3,91.3,0,0,0,9.5
2020-07-27T04:34:00+09:00,4.6,��,8,��,23.5,92.1,0,0,0,9.5
2020-07-27T04:35:00+09:00,4.7,��,8,��,23.3,90.4,0,0,0,9.5
2020-07-27T04:36:00+09:00,5,��,8,��,23.2,89.4,0,0,0,9.5
2020-07-27T04:37:00+09:00,5.1,��,8,��,23.3,89.8,0,0,0,9.5
2020-07-27T04:38:00+09:00,4.8,��,8,��,23.3,90,0,0,0,9.5
2020-07-27T04:39:00+09:00,4.7,��,8,��,23.3,90.5,0,0,0,9.5
2020-07-27T04:40:00+09:00,4.9,��,8,��,23.3,90.4,0,0,0,9.5
2020-07-27T04:41:00+09:00,4.9,��,8,��,23.3,90.4,0,0,0,9.5
2020-07-27T04:42:00+09:00,4.6,��,8,��,23.3,90.1,0,0,0,9.5
2020-07-27T04:43:00+09:00,4.7,��,7.8,���k��,23.3,90.6,0,0,0,9.5
2020-07-27T04:44:00+09:00,4.8,��,7.8,���k��,23.3,90.5,0,0,0,9.5
2020-07-27T04:45:00+09:00,4.7,��,7.8,���k��,23.3,90.3,0,0,0,9.5
2020-07-27T04:46:00+09:00,4.5,��,7.8,���k��,23.3,89.9,0,0,0,9.5
2020-07-27T04:47:00+09:00,4.5,��,7.8,���k��,23.3,89.7,0,0,0,9.5
2020-07-27T04:48:00+09:00,4.6,��,7.8,���k��,23.2,89.7,0,0,0,9.5
2020-07-27T04:49:00+09:00,4.8,��,7.9,���쐼,23.4,90.7,0,0,0,9.5
2020-07-27T04:50:00+09:00,4.8,��,8,��,23.3,90,0,0,0,9.5
2020-07-27T04:51:00+09:00,4.9,��,8,��,23.4,90.7,0,0,0,9.5
2020-07-27T04:52:00+09:00,5.3,��,8.1,���쐼,23.4,90.4,0,0,0,9.5
2020-07-27T04:53:00+09:00,5.2,��,8.1,���쐼,23.3,89,0,0,0,9.5
2020-07-27T04:54:00+09:00,5.3,��,8.1,���쐼,23.4,90.1,0,0,0,9.5
2020-07-27T04:55:00+09:00,5.4,��,8.1,���쐼,23.3,89.3,0,0,0,9.5
2020-07-27T04:56:00+09:00,5.5,��,8.1,���쐼,23.4,90.1,0,0,0,9.5
2020-07-27T04:57:00+09:00,5.7,��,8.8,��,23.5,90.6,0,0,0,9.5
2020-07-27T04:58:00+09:00,5.7,��,8.8,��,23.4,90.2,0,0,0,9.5
2020-07-27T04:59:00+09:00,5.7,��,8.8,��,23.2,89.6,0,0,0,9.5
2020-07-27T05:00:00+09:00,5.7,��,8.8,��,23.2,90.6,0,0,0,9.5
2020-07-27T05:01:00+09:00,5.6,��,8.8,��,23.2,90.9,0,0,0,9.5
2020-07-27T05:02:00+09:00,5.4,��,8.8,��,23.3,90.6,0,0,0,9.5
2020-07-27T05:03:00+09:00,5.4,��,8.8,��,23.4,90.8,0,0,0,9.5
2020-07-27T05:04:00+09:00,5.2,��,8.8,��,23.3,90.3,0,0,0,9.5
2020-07-27T05:05:00+09:00,5,��,8.8,��,23.2,90.1,0,0,0,9.5
2020-07-27T05:06:00+09:00,5.1,��,8.8,��,23.2,90.6,0,0,0,9.5
2020-07-27T05:07:00+09:00,4.9,��,8.4,���쐼,23.3,90.6,0,0,0,9.5
2020-07-27T05:08:00+09:00,4.7,��,8.4,���쐼,23.3,90.6,0,0,0,9.5
2020-07-27T05:09:00+09:00,4.6,��,8.4,���쐼,23.3,91,0,0,0,9.5
2020-07-27T05:10:00+09:00,4.5,��,8.4,���쐼,23.4,91.2,0,0,0,9.5
2020-07-27T05:11:00+09:00,4.6,��,8.4,���쐼,23.3,90.3,0,0,0,9.5
2020-07-27T05:12:00+09:00,4.7,��,8.4,���쐼,23.3,90.3,0,0,0,9.5
2020-07-27T05:13:00+09:00,4.8,��,8.4,���쐼,23.4,90.7,0,0,0,9.5
2020-07-27T05:14:00+09:00,4.8,��,8.4,���쐼,23.4,90.1,0,0,0,9.5
2020-07-27T05:15:00+09:00,4.8,��,8.4,���쐼,23.6,91.3,0,0,0,9.5
2020-07-27T05:16:00+09:00,4.7,��,8.2,���쐼,23.5,90.2,0,0,0,9.5
2020-07-27T05:17:00+09:00,4.8,��,8.2,���쐼,23.4,89.1,0,0,0,9.5
2020-07-27T05:18:00+09:00,4.6,��,8.2,���쐼,23.4,89.6,0,0,0,9.5
2020-07-27T05:19:00+09:00,4.5,��,8.2,���쐼,23.4,90.1,0,0,0,9.5
2020-07-27T05:20:00+09:00,4.5,��,7.2,��,23.4,89.6,0,0,0,9.5
2020-07-27T05:21:00+09:00,4.4,��,7.2,��,23.5,89.5,0,0,0,9.5
2020-07-27T05:22:00+09:00,4.3,��,7.2,��,23.5,89.8,0,0,0,9.5
2020-07-27T05:23:00+09:00,4.1,��,7.2,��,23.8,90.7,0,0,0,9.5
2020-07-27T05:24:00+09:00,3.9,��,7.2,��,23.8,90.2,0,0,0,9.5
2020-07-27T05:25:00+09:00,3.6,��,7.2,��,23.7,89.4,0,0,0,9.5
2020-07-27T05:26:00+09:00,3.4,��,6.3,���쐼,23.9,90.8,0,0,0,9.5
2020-07-27T05:27:00+09:00,3.2,��,6.1,���쐼,24.1,90.8,0,0,0,9.5
2020-07-27T05:28:00+09:00,3.4,��,6.1,���쐼,24.1,89.9,0,0,0,9.5
2020-07-27T05:29:00+09:00,3.4,��,5.8,���쐼,23.9,88.2,0,0,0,9.5
2020-07-27T05:30:00+09:00,3.3,��,5.8,���쐼,23.9,88.8,0,0,0,9.5
2020-07-27T05:31:00+09:00,3.4,��,5.8,���쐼,23.8,89.3,0,0,0,9.5
2020-07-27T05:32:00+09:00,3.5,��,6.1,���쐼,23.9,89.7,0,0,0,9.5
2020-07-27T05:33:00+09:00,3.5,��,6.2,��,24.1,90.2,0,0,0,9.5
2020-07-27T05:34:00+09:00,3.6,��,6.2,��,24,89.9,0,0,0,9.5
2020-07-27T05:35:00+09:00,3.8,��,6.2,��,24,89.9,0,0,0,9.5
2020-07-27T05:36:00+09:00,3.7,��,6.2,��,24,90.1,0,0,0,9.5
2020-07-27T05:37:00+09:00,3.8,��,6.2,��,23.9,89.7,0,0,0,9.5
2020-07-27T05:38:00+09:00,3.7,��,6.2,��,23.8,89,0,0,0,9.5
2020-07-27T05:39:00+09:00,3.6,��,6.2,��,23.8,89.2,0,0,0,9.5
2020-07-27T05:40:00+09:00,3.7,��,6.2,��,23.8,89.7,0,0,0,9.5
2020-07-27T05:41:00+09:00,3.6,��,6.2,��,23.8,89.6,0,0,0,9.5
2020-07-27T05:42:00+09:00,3.5,��,6.2,��,23.8,90.2,0,0,0,9.5
2020-07-27T05:43:00+09:00,3.4,��,5.5,���쐼,24.1,91,0,0,0,9.5
2020-07-27T05:44:00+09:00,3.3,��,5.5,���쐼,24.3,90,0,0,0,9.5
2020-07-27T05:45:00+09:00,3.2,��,5.5,���쐼,24.3,89.3,0,0,0,9.5
2020-07-27T05:46:00+09:00,3.2,��,5.5,���쐼,24.2,89.1,0,0,0,9.5
2020-07-27T05:47:00+09:00,3.2,��,5.5,���쐼,24.1,88,0,0,0,9.5
2020-07-27T05:48:00+09:00,3.2,��,5.5,���쐼,24,88.3,0,0,0,9.5
2020-07-27T05:49:00+09:00,3.3,��,5.5,���쐼,24.2,89.2,0,0,0,9.5
2020-07-27T05:50:00+09:00,3,��,5.5,��,24.3,89.2,0,0,0,9.5
2020-07-27T05:51:00+09:00,2.8,��,5.5,��,24.7,89.2,0,0,0,9.5
2020-07-27T05:52:00+09:00,2.6,��,5.5,��,24.7,88.1,0,0,0,9.5
2020-07-27T05:53:00+09:00,2.5,��,5.5,��,24.7,87.8,0,0,0,9.5
2020-07-27T05:54:00+09:00,2.5,��,5.5,��,24.6,87.5,0,0,0,9.5
2020-07-27T05:55:00+09:00,2.4,��,5.5,��,24.7,87.4,0,0,0,9.5
2020-07-27T05:56:00+09:00,2.3,��,5.5,��,24.6,87.2,0,0,0,9.5
2020-07-27T05:57:00+09:00,2.2,��,5.5,��,24.6,87.4,0,0,0,9.5
2020-07-27T05:58:00+09:00,2.1,��,5.5,��,24.7,87.1,0,0,0,9.5
2020-07-27T05:59:00+09:00,2.1,���k��,4.6,�k��,24.7,86.7,0,0,0,9.5
2020-07-27T06:00:00+09:00,2.2,���k��,4.8,���k��,24.8,87.1,0,0,0,9.5
2020-07-27T06:01:00+09:00,2.4,���k��,4.8,���k��,24.8,87.8,0,0,0,9.5
2020-07-27T06:02:00+09:00,2.5,���k��,4.8,���k��,24.9,87.9,0,0,0,9.5
2020-07-27T06:03:00+09:00,2.7,��,4.8,���k��,24.9,87.4,0,0,0,9.5
2020-07-27T06:04:00+09:00,2.9,��,5.6,��,24.8,86.8,0,0,0,9.5
2020-07-27T06:05:00+09:00,3.1,��,5.8,��,24.9,86.8,0,0,0,9.5
2020-07-27T06:06:00+09:00,3.2,��,5.8,��,25,86.4,0,0,0,9.5
2020-07-27T06:07:00+09:00,3.1,��,5.8,��,25,86.4,0,0,0,9.5
2020-07-27T06:08:00+09:00,3.1,��,5.8,��,25,86.7,0,0,0,9.5
2020-07-27T06:09:00+09:00,3,��,5.8,��,24.9,86.7,0,0,0,9.5
2020-07-27T06:10:00+09:00,3.1,��,5.8,��,24.9,86.7,0,0,0,9.5
2020-07-27T06:11:00+09:00,3.1,��,5.8,��,24.8,86.7,0,0,0,9.5
2020-07-27T06:12:00+09:00,3.1,��,5.8,��,24.8,86.8,0,0,0,9.5
2020-07-27T06:13:00+09:00,3.1,��,5.8,��,24.9,87.1,0,0,0,9.5
2020-07-27T06:14:00+09:00,2.9,��,5.8,��,24.9,86.8,0,0,0,9.5
2020-07-27T06:15:00+09:00,2.8,��,5.6,��,24.9,86.8,0,0,0,9.5
2020-07-27T06:16:00+09:00,2.9,��,5.6,��,24.9,86.4,0,0,0,9.5
2020-07-27T06:17:00+09:00,2.9,��,5.6,��,24.9,86.4,0,0,0,9.5
2020-07-27T06:18:00+09:00,3,��,5.6,��,24.9,86.6,0,0,0,9.5
2020-07-27T06:19:00+09:00,3.1,��,5.6,��,25,87.3,0,0,0,9.5
2020-07-27T06:20:00+09:00,2.9,��,5.6,��,25,86.9,0,0,0,9.5
2020-07-27T06:21:00+09:00,2.8,��,5.6,��,24.9,86.8,0,0,0,9.5
2020-07-27T06:22:00+09:00,2.8,��,5.6,��,25,86.9,0,0,0,9.5
2020-07-27T06:23:00+09:00,2.7,��,5.6,��,25,86.3,0,0,0,9.5
2020-07-27T06:24:00+09:00,2.6,��,5.6,��,25,86.4,0,0,0,9.5
2020-07-27T06:25:00+09:00,2.5,���k��,5.3,��,25,86.7,0,0,0,9.5
2020-07-27T06:26:00+09:00,2.6,���k��,5.7,���k��,25,86.8,0,0,0,9.5
2020-07-27T06:27:00+09:00,2.7,���k��,5.7,���k��,25,87.2,0,0,0,9.5
2020-07-27T06:28:00+09:00,2.9,���k��,6.9,���k��,25,87.2,0,0,0,9.5